User: anonymous   Login
Location: Unspecified
(0.0000°N, 0.0000°E)
Time: 19:58:35
(UTC+00:00)
Language:

Tubsat - Orbit

View from above orbital plane
View from above orbital plane
View from above satellite
View from above satellite

Ground track
Ground track

The orbit data is extracted from the following two-line orbital elements,

1 25757U 99029B   17268.94768530 +.00000060 +00000-0 +26456-4 0  9994
2 25757 098.4054 180.8916 0014478 356.7451 003.3648 14.51366610971088
Epoch (UTC): 25 September 2017 22:44:40
Eccentricity: 0.0014478
inclination: 98.4054°
perigee height: 711 km
apogee height: 731 km
right ascension of ascending node: 180.8916°
argument of perigee: 356.7451°
revolutions per day: 14.51366610
mean anomaly at epoch: 3.3648°
orbit number at epoch: 97108

The dashed part of the orbit path shows where the satellite is in the earth's shadow,  

DLR